Flag for United Kingdom Weather past 2 weeks in Watford, England, United Kingdom

Now
37 °F

Partly cloudy.


Feels Like: 27 °F
Forecast: 29 / 38 °F
Wind: 18 mph from Northwest

Location: Northolt

Current Time: Feb 1, 2015 at 7:48:49 AM

Latest Report: Feb 1, 2015 at 6:50 AM


Visibility: N/A

Pressure: 29.39 "Hg

Humidity: 75%

Dew point: 30 °F

Location of WatfordLocation

Historic Weather in Watford — Graph

°F

Watford temperature yesterday

Maximum temperature yesterday: 41 °F (at 1:50 PM)
Minimum temperature yesterday: 32 °F (at 12:50 AM)
Average temperature yesterday: 37 °F

Past Weeks' High & Low Weather Summary

 TemperatureHumidityPressure
High50 °F (Jan 26, 8:50 AM)100% (Jan 18, 4:50 AM)30.48 "Hg (Jan 18, 4:50 AM)
Low21 °F (Jan 23, 3:50 AM)53% (Jan 28, 3:50 PM)28.77 "Hg (Jan 30, 4:50 AM)
Average38 °F81%29.82 "Hg
* Reported Jan 17 6:50 AM — Feb 1 6:50 AM, Watford, Weather by CustomWeather, © 2014

Note: Actual official high and low records may vary slightly from our data, if they occured in-between our weather recording intervals... More about our weather records

Advertising

Watford weather history for previous 24 hours

 ConditionsComfort  
Time TempWeatherWind HumidityBarometerVisibility
6:50 AM
Feb 1
37 °FPartly cloudy.18 mph75%29.39 "HgN/A
5:50 AM39 °FPassing clouds.18 mph65%29.39 "HgN/A
4:50 AM37 °FPassing clouds.18 mph70%29.36 "HgN/A
3:50 AM36 °FPartly cloudy.15 mph87%29.36 "HgN/A
2:50 AM36 °FPartly cloudy.10 mph87%29.36 "HgN/A
1:50 AM36 °FPassing clouds.16 mph87%29.36 "HgN/A
12:50 AM37 °FPassing clouds.17 mph65%29.33 "HgN/A
11:50 PM
Jan 31
37 °FPassing clouds.16 mph65%29.33 "HgN/A
10:50 PM37 °FPassing clouds.17 mph60%29.33 "HgN/A
9:50 PM37 °FPassing clouds.16 mph60%29.33 "HgN/A
8:50 PM39 °FPassing clouds.16 mph65%29.30 "HgN/A
7:50 PM39 °FPartly cloudy.16 mph61%29.30 "HgN/A
6:50 PM39 °FClear.20 mph65%29.27 "Hg10 mi
5:50 PM39 °FClear.18 mph70%29.24 "Hg10 mi
4:50 PM39 °FPassing clouds.16 mph70%29.18 "HgN/A
3:50 PM41 °FPartly sunny.20 mph70%29.15 "HgN/A
2:50 PM41 °FPartly sunny.18 mph76%29.12 "HgN/A
1:50 PM41 °FBroken clouds.18 mph81%29.09 "HgN/A
12:50 PM37 °FLight rain. More clouds than sun.9 mph87%29.06 "HgN/A
11:50 AM37 °FLight rain. Low clouds.13 mph93%29.06 "Hg6 mi
10:50 AM37 °FPartly sunny.9 mph87%29.03 "HgN/A
9:50 AM36 °FLight rain. Partly sunny.6 mph93%29.00 "HgN/A
8:50 AM34 °FLight rain. Broken clouds.6 mph93%28.97 "Hg3 mi
7:50 AM34 °FLight rain. Low clouds.7 mph93%28.94 "Hg3 mi
Weather by CustomWeather, © 2014

See weather overviewHow to use our weather pages